Date String (YYYY-MM-DD hh:mm:ss) UTC,Instrument flags,Ambient pressure (hPa),Sample flow (lpm),Bypass flow (lpm),Sample temperature (°C),Ambient temperature (°C),ASC tube jacket temperature (°C),LED temperature (°C),Box temperature (°C),Sample RH (%),Span deviation,Mass concentration (μg/m³),Mass concentration (μg/m³),Mass concentration (μg/m³)
DateTimeUTC,F1_M11,P_M11,Q1_M11,Q2_M11,T1_M11,T2_M11,T3_M11,T4_M11,T5_M11,U1_M11,ZSPAN_M11,X2_M11,X0_M11,X1_M11
2022-04-17 19:00:00,,0825.3,5.01,0.00,25.2,24.4,00.0,34.2,27.0,15.2,0000.0,0005.23,0014.20,0001.59
2022-04-17 19:01:00,,0825.3,5.00,0.00,25.2,24.4,00.0,34.2,27.0,15.4,0000.0,0005.32,0013.78,0001.63
2022-04-17 19:02:00,,0825.3,4.99,0.00,25.2,24.4,00.0,34.2,27.0,15.3,0000.0,0005.45,0013.99,0001.63
2022-04-17 19:03:00,,0825.4,5.00,0.00,25.2,24.3,00.0,34.2,27.0,15.3,0000.0,0005.57,0014.83,0001.65
2022-04-17 19:04:00,,0825.3,5.01,0.00,25.2,24.4,00.0,34.2,27.1,15.5,0000.0,0005.52,0014.89,0001.65
2022-04-17 19:05:00,,0825.2,5.00,0.00,25.2,24.4,00.0,34.2,27.1,16.4,0000.0,0005.50,0015.30,0001.64
2022-04-17 19:06:00,,0825.3,5.00,0.00,25.3,24.4,00.0,34.2,27.1,15.9,0000.0,0005.40,0015.00,0001.65
2022-04-17 19:07:00,,0825.3,5.00,0.00,25.3,24.4,00.0,34.2,27.1,16.1,0000.0,0005.48,0015.20,0001.64
2022-04-17 19:08:00,,0825.3,5.02,0.00,25.3,24.4,00.0,34.2,27.1,16.0,0000.0,0005.54,0015.34,0001.66
2022-04-17 19:09:00,,0825.3,5.01,0.00,25.3,24.4,00.0,34.2,27.1,15.9,0000.0,0005.53,0015.21,0001.67
2022-04-17 19:10:00,,0825.3,4.99,0.00,25.3,24.4,00.0,34.2,27.1,16.1,0000.0,0005.53,0015.23,0001.67
2022-04-17 19:11:00,,0825.4,5.00,0.00,25.3,24.4,00.0,34.2,27.1,15.7,0000.0,0005.57,0016.62,0001.67
2022-04-17 19:12:00,,0825.4,5.01,0.00,25.3,24.4,00.0,34.2,27.1,16.0,0000.0,0005.48,0016.86,0001.66
2022-04-17 19:13:00,,0825.5,5.01,0.00,25.3,24.4,00.0,34.2,27.1,15.7,0000.0,0005.36,0016.65,0001.67
2022-04-17 19:14:00,,0825.4,4.99,0.00,25.3,24.4,00.0,34.2,27.1,15.6,0000.0,0005.28,0016.01,0001.66
2022-04-17 19:15:00,,0825.4,5.01,0.00,25.3,24.4,00.0,34.3,27.2,16.0,0000.0,0005.27,0016.67,0001.67
2022-04-17 19:16:00,,0825.5,5.01,0.00,25.4,24.4,00.0,34.3,27.2,16.2,0000.0,0005.23,0016.40,0001.68
2022-04-17 19:17:00,,0825.5,4.99,0.00,25.4,24.4,00.0,34.3,27.2,16.3,0000.0,0005.27,0016.53,0001.66
2022-04-17 19:18:00,,0825.5,5.01,0.00,25.4,24.5,00.0,34.3,27.2,15.8,0000.0,0005.27,0016.67,0001.68
2022-04-17 19:19:00,,0825.5,4.99,0.00,25.4,24.5,00.0,34.3,27.2,16.0,0000.0,0005.24,0016.76,0001.69
2022-04-17 19:20:00,,0825.5,5.00,0.00,25.4,24.4,00.0,34.3,27.2,15.6,0000.0,0005.23,0017.01,0001.71
2022-04-17 19:21:00,,0825.5,5.00,0.00,25.4,24.4,00.0,34.3,27.2,15.9,0000.0,0005.31,0017.38,0001.75
2022-04-17 19:22:00,,0825.5,4.99,0.00,25.4,24.5,00.0,34.3,27.2,16.0,0000.0,0005.35,0016.80,0001.77
2022-04-17 19:23:00,,0825.5,5.00,0.00,25.4,24.5,00.0,34.3,27.2,15.6,0000.0,0005.41,0017.21,0001.79
2022-04-17 19:24:00,,0825.4,5.01,0.00,25.4,24.5,00.0,34.3,27.3,15.3,0000.0,0005.47,0017.89,0001.80
2022-04-17 19:25:00,,0825.5,4.99,0.00,25.4,24.6,00.0,34.3,27.2,15.0,0000.0,0005.54,0018.98,0001.81
2022-04-17 19:26:00,,0825.5,4.99,0.00,25.4,24.6,00.0,34.3,27.2,15.0,0000.0,0005.59,0018.94,0001.81
2022-04-17 19:27:00,,0825.6,4.99,0.00,25.4,24.5,00.0,34.3,27.3,15.5,0000.0,0005.65,0019.07,0001.82
2022-04-17 19:28:00,,0825.5,4.99,0.00,25.5,24.6,00.0,34.4,27.3,15.5,0000.0,0005.64,0019.45,0001.86
2022-04-17 19:29:00,,0825.5,5.01,0.00,25.5,24.6,00.0,34.4,27.3,15.6,0000.0,0005.67,0019.72,0001.87
2022-04-17 19:30:00,,0825.5,4.99,0.00,25.5,24.6,00.0,34.4,27.3,15.6,0000.0,0005.75,0019.77,0001.89
2022-04-17 19:31:00,,0825.5,4.99,0.00,25.5,24.6,00.0,34.4,27.3,15.5,0000.0,0005.83,0020.22,0001.89
2022-04-17 19:32:00,,0825.5,5.00,0.00,25.5,24.6,00.0,34.4,27.3,15.4,0000.0,0005.80,0019.73,0001.87
2022-04-17 19:33:00,,0825.4,5.02,0.00,25.5,24.6,00.0,34.4,27.3,15.1,0000.0,0005.73,0018.93,0001.84
2022-04-17 19:34:00,,0825.4,4.99,0.00,25.5,24.5,00.0,34.4,27.3,15.1,0000.0,0005.61,0018.07,0001.79
2022-04-17 19:35:00,,0825.4,5.00,0.00,25.5,24.6,00.0,34.4,27.4,15.3,0000.0,0005.52,0017.30,0001.75
2022-04-17 19:36:00,,0825.4,4.99,0.00,25.6,24.6,00.0,34.4,27.4,15.4,0000.0,0005.37,0016.07,0001.71
2022-04-17 19:37:00,,0825.4,5.00,0.00,25.6,24.6,00.0,34.4,27.4,15.4,0000.0,0005.29,0015.48,0001.68
2022-04-17 19:38:00,,0825.4,5.02,0.00,25.5,24.6,00.0,34.4,27.4,15.0,0000.0,0005.15,0015.16,0001.64
2022-04-17 19:39:00,,0825.3,4.99,0.00,25.6,24.6,00.0,34.5,27.4,15.4,0000.0,0005.01,0014.81,0001.57
2022-04-17 19:40:00,,0825.4,4.99,0.00,25.6,24.6,00.0,34.5,27.4,15.4,0000.0,0004.87,0014.44,0001.51
2022-04-17 19:41:00,,0825.4,5.02,0.00,25.6,24.6,00.0,34.5,27.4,15.6,0000.0,0004.72,0014.01,0001.46
2022-04-17 19:42:00,,0825.4,4.99,0.00,25.6,24.6,00.0,34.5,27.4,15.9,0000.0,0004.57,0013.46,0001.40
2022-04-17 19:43:00,,0825.4,5.00,0.00,25.6,24.7,00.0,34.5,27.4,15.5,0000.0,0004.64,0013.94,0001.39
2022-04-17 19:44:00,,0825.3,5.01,0.00,25.6,24.7,00.0,34.5,27.5,15.4,0000.0,0004.67,0014.78,0001.39
2022-04-17 19:45:00,,0825.3,4.99,0.00,25.6,24.7,00.0,34.5,27.5,15.3,0000.0,0004.73,0015.04,0001.40
2022-04-17 19:46:00,,0825.3,5.00,0.00,25.6,24.7,00.0,34.5,27.5,15.2,0000.0,0004.75,0015.31,0001.43
2022-04-17 19:47:00,,0825.3,5.00,0.00,25.6,24.7,00.0,34.5,27.5,15.2,0000.0,0004.79,0015.80,0001.46
2022-04-17 19:48:00,,0825.3,5.01,0.00,25.6,24.7,00.0,34.5,27.4,15.4,0000.0,0004.83,0015.36,0001.48
2022-04-17 19:49:00,,0825.3,4.99,0.00,25.6,24.7,00.0,34.5,27.4,15.5,0000.0,0004.85,0015.48,0001.50
2022-04-17 19:50:00,,0825.3,5.00,0.00,25.6,24.7,00.0,34.5,27.5,15.9,0000.0,0004.89,0015.28,0001.52
2022-04-17 19:51:00,,0825.2,5.02,0.00,25.7,24.7,00.0,34.6,27.5,15.6,0000.0,0004.98,0014.95,0001.54
2022-04-17 19:52:00,,0825.3,5.00,0.00,25.7,24.8,00.0,34.6,27.5,14.5,0000.0,0005.06,0015.16,0001.59
2022-04-17 19:53:00,,0825.3,4.99,0.00,25.7,24.8,00.0,34.6,27.5,14.6,0000.0,0005.12,0015.41,0001.61
2022-04-17 19:54:00,,0825.1,5.00,0.00,25.7,24.8,00.0,34.6,27.5,14.7,0000.0,0005.05,0015.09,0001.60
2022-04-17 19:55:00,,0825.2,5.02,0.00,25.7,24.8,00.0,34.6,27.6,14.7,0000.0,0005.03,0015.01,0001.59
2022-04-17 19:56:00,,0825.2,4.99,0.00,25.7,24.8,00.0,34.6,27.6,14.7,0000.0,0005.02,0015.48,0001.60
2022-04-17 19:57:00,,0825.2,5.02,0.00,25.7,24.9,00.0,34.6,27.6,14.5,0000.0,0005.00,0015.62,0001.60
2022-04-17 19:58:00,,0825.3,5.01,0.00,25.7,24.8,00.0,34.6,27.6,14.5,0000.0,0005.07,0015.72,0001.61
2022-04-17 19:59:00,,0825.3,5.00,0.00,25.7,24.9,00.0,34.6,27.6,14.5,0000.0,0005.06,0016.60,0001.63
